Time,TemperatureF,DewpointF,PressureIn,WindDirection,WindDirectionDegrees,WindSpeedMPH,WindSpeedGustMPH,Humidity,HourlyPrecipIn,Conditions,Clouds,dailyrainin,SolarRadiationWatts/m^2,SoftwareType,DateUTC
2013-11-19 00:01:00,40.0,32.0,-100.00,NW,322,24.0,30.0,72,0.00,,,0.00,0.000000,,2013-11-19 08:01:00,
2013-11-19 00:11:00,40.0,32.0,-100.00,NW,322,24.0,30.0,72,0.00,,,0.00,0.000000,,2013-11-19 08:11:00,
2013-11-19 00:21:00,40.0,32.0,-100.00,NW,322,24.0,30.0,72,0.00,,,0.00,0.000000,,2013-11-19 08:21:00,
2013-11-19 00:52:00,38.0,31.0,-100.00,NW,318,24.0,29.0,76,0.00,,,0.00,0.000000,,2013-11-19 08:52:00,
2013-11-19 01:02:00,38.0,31.0,-100.00,NW,318,24.0,29.0,76,0.00,,,0.00,0.000000,,2013-11-19 09:02:00,
2013-11-19 01:11:00,38.0,31.0,-100.00,NW,318,24.0,29.0,76,0.00,,,0.00,0.000000,,2013-11-19 09:11:00,
2013-11-19 01:21:00,38.0,31.0,-100.00,NW,318,24.0,29.0,76,0.00,,,0.00,0.000000,,2013-11-19 09:21:00,
2013-11-19 01:53:00,37.0,31.0,-100.00,NW,316,26.0,31.0,78,0.00,,,0.00,0.000000,,2013-11-19 09:53:00,
2013-11-19 02:03:00,37.0,31.0,-100.00,NW,316,26.0,31.0,78,0.00,,,0.00,0.000000,,2013-11-19 10:03:00,
2013-11-19 02:12:00,37.0,31.0,-100.00,NW,316,26.0,31.0,78,0.00,,,0.00,0.000000,,2013-11-19 10:12:00,
2013-11-19 02:23:00,37.0,31.0,-100.00,NW,316,26.0,31.0,78,0.00,,,0.00,0.000000,,2013-11-19 10:23:00,
2013-11-19 02:53:00,36.0,30.0,-100.00,NW,309,28.0,35.0,78,0.00,,,0.00,0.000000,,2013-11-19 10:53:00,
2013-11-19 03:02:00,36.0,30.0,-100.00,NW,309,28.0,35.0,78,0.00,,,0.00,0.000000,,2013-11-19 11:02:00,
2013-11-19 03:12:00,36.0,30.0,-100.00,NW,309,28.0,35.0,78,0.00,,,0.00,0.000000,,2013-11-19 11:12:00,
2013-11-19 03:22:00,36.0,30.0,-100.00,NW,309,28.0,35.0,78,0.00,,,0.00,0.000000,,2013-11-19 11:22:00,
2013-11-19 03:52:00,38.0,32.0,-100.00,WNW,302,30.0,36.0,78,0.00,,,0.00,0.000000,,2013-11-19 11:52:00,
2013-11-19 04:01:00,38.0,32.0,-100.00,WNW,302,30.0,36.0,78,0.00,,,0.00,0.000000,,2013-11-19 12:01:00,
2013-11-19 04:12:00,38.0,32.0,-100.00,WNW,302,30.0,36.0,78,0.00,,,0.00,0.000000,,2013-11-19 12:12:00,
2013-11-19 04:21:00,38.0,32.0,-100.00,WNW,302,30.0,36.0,78,0.00,,,0.00,0.000000,,2013-11-19 12:21:00,
2013-11-19 04:52:00,36.0,30.0,-100.00,NW,307,29.0,45.0,80,0.00,,,0.00,0.000000,,2013-11-19 12:52:00,
2013-11-19 05:01:00,36.0,30.0,-100.00,NW,307,29.0,45.0,80,0.00,,,0.00,0.000000,,2013-11-19 13:01:00,
2013-11-19 05:11:00,36.0,30.0,-100.00,NW,307,29.0,45.0,80,0.00,,,0.00,0.000000,,2013-11-19 13:11:00,
2013-11-19 05:21:00,36.0,30.0,-100.00,NW,307,29.0,45.0,80,0.00,,,0.00,0.000000,,2013-11-19 13:21:00,
2013-11-19 05:52:00,37.0,31.0,-100.00,WNW,291,19.0,42.0,80,0.00,,,0.00,0.000000,,2013-11-19 13:52:00,
2013-11-19 06:02:00,37.0,31.0,-100.00,WNW,291,19.0,42.0,80,0.00,,,0.00,0.000000,,2013-11-19 14:02:00,
2013-11-19 06:11:00,37.0,31.0,-100.00,WNW,291,19.0,42.0,80,0.00,,,0.00,0.000000,,2013-11-19 14:11:00,
2013-11-19 06:21:00,37.0,31.0,-100.00,WNW,291,19.0,42.0,80,0.00,,,0.00,0.000000,,2013-11-19 14:21:00,
2013-11-19 06:52:00,37.0,33.0,-100.00,NW,304,23.0,36.0,86,0.00,,,0.00,0.000000,,2013-11-19 14:52:00,
2013-11-19 07:01:00,37.0,33.0,-100.00,NW,304,23.0,36.0,86,0.00,,,0.00,0.000000,,2013-11-19 15:01:00,
2013-11-19 07:11:00,37.0,33.0,-100.00,NW,304,23.0,36.0,86,0.00,,,0.00,0.000000,,2013-11-19 15:11:00,
2013-11-19 07:21:00,37.0,33.0,-100.00,NW,304,23.0,36.0,86,0.00,,,0.00,0.000000,,2013-11-19 15:21:00,
2013-11-19 07:54:00,36.0,32.0,-100.00,NW,304,23.0,32.0,86,0.00,,,0.00,0.000000,,2013-11-19 15:54:00,
2013-11-19 08:04:00,36.0,32.0,-100.00,NW,304,23.0,32.0,86,0.00,,,0.00,0.000000,,2013-11-19 16:04:00,
2013-11-19 08:13:00,36.0,32.0,-100.00,NW,304,23.0,32.0,86,0.00,,,0.00,0.000000,,2013-11-19 16:13:00,
2013-11-19 08:22:00,36.0,32.0,-100.00,NW,304,23.0,32.0,86,0.00,,,0.00,0.000000,,2013-11-19 16:22:00,
2013-11-19 08:52:00,35.0,32.0,-100.00,NW,313,22.0,32.0,88,0.00,,,0.00,54.000000,,2013-11-19 16:52:00,
2013-11-19 09:02:00,35.0,32.0,-100.00,NW,313,22.0,32.0,88,0.00,,,0.00,54.000000,,2013-11-19 17:02:00,
2013-11-19 09:12:00,35.0,32.0,-100.00,NW,313,22.0,32.0,88,0.00,,,0.00,54.000000,,2013-11-19 17:12:00,
2013-11-19 09:22:00,35.0,32.0,-100.00,NW,313,22.0,32.0,88,0.00,,,0.00,54.000000,,2013-11-19 17:22:00,
2013-11-19 09:52:00,34.0,28.0,-100.00,NW,314,20.0,30.0,77,0.00,,,0.00,79.000000,,2013-11-19 17:52:00,
2013-11-19 10:02:00,34.0,28.0,-100.00,NW,314,20.0,30.0,77,0.00,,,0.00,79.000000,,2013-11-19 18:02:00,
2013-11-19 10:12:00,34.0,28.0,-100.00,NW,314,20.0,30.0,77,0.00,,,0.00,79.000000,,2013-11-19 18:12:00,
2013-11-19 10:22:00,34.0,28.0,-100.00,NW,314,20.0,30.0,77,0.00,,,0.00,79.000000,,2013-11-19 18:22:00,
2013-11-19 10:52:00,39.0,32.0,-100.00,WNW,294,15.0,26.0,77,0.00,,,0.00,164.000000,,2013-11-19 18:52:00,
2013-11-19 11:01:00,39.0,32.0,-100.00,WNW,294,15.0,26.0,77,0.00,,,0.00,164.000000,,2013-11-19 19:01:00,
2013-11-19 11:11:00,39.0,32.0,-100.00,WNW,294,15.0,26.0,77,0.00,,,0.00,164.000000,,2013-11-19 19:11:00,
2013-11-19 11:21:00,39.0,32.0,-100.00,WNW,294,15.0,26.0,77,0.00,,,0.00,164.000000,,2013-11-19 19:21:00,
2013-11-19 11:52:00,40.0,33.0,-100.00,NW,305,19.0,20.0,75,0.00,,,0.00,236.000000,,2013-11-19 19:52:00,
2013-11-19 12:02:00,40.0,33.0,-100.00,NW,305,19.0,20.0,75,0.00,,,0.00,236.000000,,2013-11-19 20:02:00,
2013-11-19 12:11:00,40.0,33.0,-100.00,NW,305,19.0,20.0,75,0.00,,,0.00,236.000000,,2013-11-19 20:11:00,
2013-11-19 12:21:00,40.0,33.0,-100.00,NW,305,19.0,20.0,75,0.00,,,0.00,236.000000,,2013-11-19 20:21:00,
2013-11-19 12:52:00,42.0,30.0,-100.00,NW,314,18.0,25.0,61,0.00,,,0.00,331.000000,,2013-11-19 20:52:00,
2013-11-19 13:02:00,42.0,30.0,-100.00,NW,314,18.0,25.0,61,0.00,,,0.00,331.000000,,2013-11-19 21:02:00,
2013-11-19 13:11:00,42.0,30.0,-100.00,NW,314,18.0,25.0,61,0.00,,,0.00,331.000000,,2013-11-19 21:11:00,
2013-11-19 13:21:00,42.0,30.0,-100.00,NW,314,18.0,25.0,61,0.00,,,0.00,331.000000,,2013-11-19 21:21:00,
2013-11-19 13:54:00,44.0,28.0,-100.00,NW,315,16.0,27.0,53,0.00,,,0.00,704.000000,,2013-11-19 21:54:00,
2013-11-19 14:03:00,44.0,28.0,-100.00,NW,315,16.0,27.0,53,0.00,,,0.00,704.000000,,2013-11-19 22:03:00,
2013-11-19 14:12:00,44.0,28.0,-100.00,NW,315,16.0,27.0,53,0.00,,,0.00,704.000000,,2013-11-19 22:12:00,
2013-11-19 14:22:00,44.0,28.0,-100.00,NW,315,16.0,27.0,53,0.00,,,0.00,704.000000,,2013-11-19 22:22:00,
2013-11-19 14:53:00,47.0,28.0,-100.00,NW,315,16.0,22.0,48,0.00,,,0.00,627.000000,,2013-11-19 22:53:00,
2013-11-19 15:02:00,47.0,28.0,-100.00,NW,315,16.0,22.0,48,0.00,,,0.00,627.000000,,2013-11-19 23:02:00,
2013-11-19 15:12:00,47.0,28.0,-100.00,NW,315,16.0,22.0,48,0.00,,,0.00,627.000000,,2013-11-19 23:12:00,
2013-11-19 15:21:00,47.0,28.0,-100.00,NW,315,16.0,22.0,48,0.00,,,0.00,627.000000,,2013-11-19 23:21:00,
2013-11-19 15:52:00,50.0,32.0,-100.00,NW,324,19.0,25.0,49,0.00,,,0.00,544.000000,,2013-11-19 23:52:00,
2013-11-19 16:02:00,50.0,32.0,-100.00,NW,324,19.0,25.0,49,0.00,,,0.00,544.000000,,2013-11-20 00:02:00,
2013-11-19 16:11:00,50.0,32.0,-100.00,NW,324,19.0,25.0,49,0.00,,,0.00,544.000000,,2013-11-20 00:11:00,
2013-11-19 16:21:00,50.0,32.0,-100.00,NW,324,19.0,25.0,49,0.00,,,0.00,544.000000,,2013-11-20 00:21:00,
2013-11-19 16:52:00,48.0,32.0,-100.00,NW,313,15.0,26.0,54,0.00,,,0.00,376.000000,,2013-11-20 00:52:00,
2013-11-19 17:01:00,48.0,32.0,-100.00,NW,313,15.0,26.0,54,0.00,,,0.00,376.000000,,2013-11-20 01:01:00,
2013-11-19 17:11:00,48.0,32.0,-100.00,NW,313,15.0,26.0,54,0.00,,,0.00,376.000000,,2013-11-20 01:11:00,
2013-11-19 17:21:00,48.0,32.0,-100.00,NW,313,15.0,26.0,54,0.00,,,0.00,376.000000,,2013-11-20 01:21:00,
2013-11-19 17:52:00,44.0,32.0,-100.00,NW,312,19.0,24.0,62,0.00,,,0.00,160.000000,,2013-11-20 01:52:00,
2013-11-19 18:01:00,44.0,32.0,-100.00,NW,312,19.0,24.0,62,0.00,,,0.00,160.000000,,2013-11-20 02:01:00,
2013-11-19 18:11:00,44.0,32.0,-100.00,NW,312,19.0,24.0,62,0.00,,,0.00,160.000000,,2013-11-20 02:11:00,
2013-11-19 18:21:00,44.0,32.0,-100.00,NW,312,19.0,24.0,62,0.00,,,0.00,160.000000,,2013-11-20 02:21:00,
2013-11-19 18:52:00,41.0,29.0,-100.00,NNW,331,15.0,23.0,61,0.00,,,0.00,4.000000,,2013-11-20 02:52:00,
2013-11-19 19:02:00,41.0,29.0,-100.00,NNW,331,15.0,23.0,61,0.00,,,0.00,4.000000,,2013-11-20 03:02:00,
2013-11-19 19:11:00,41.0,29.0,-100.00,NNW,331,15.0,23.0,61,0.00,,,0.00,4.000000,,2013-11-20 03:11:00,
2013-11-19 19:21:00,41.0,29.0,-100.00,NNW,331,15.0,23.0,61,0.00,,,0.00,4.000000,,2013-11-20 03:21:00,
2013-11-19 19:54:00,41.0,27.0,-100.00,NNW,328,18.0,22.0,58,0.00,,,0.00,0.000000,,2013-11-20 03:54:00,
2013-11-19 20:03:00,41.0,27.0,-100.00,NNW,328,18.0,22.0,58,0.00,,,0.00,0.000000,,2013-11-20 04:03:00,
2013-11-19 20:13:00,41.0,27.0,-100.00,NNW,328,18.0,22.0,58,0.00,,,0.00,0.000000,,2013-11-20 04:13:00,
2013-11-19 20:23:00,41.0,27.0,-100.00,NNW,328,18.0,22.0,58,0.00,,,0.00,0.000000,,2013-11-20 04:23:00,
2013-11-19 20:52:00,43.0,29.0,-100.00,NNW,336,16.0,22.0,57,0.00,,,0.00,0.000000,,2013-11-20 04:52:00,
2013-11-19 21:02:00,43.0,29.0,-100.00,NNW,336,16.0,22.0,57,0.00,,,0.00,0.000000,,2013-11-20 05:02:00,
2013-11-19 21:12:00,43.0,29.0,-100.00,NNW,336,16.0,22.0,57,0.00,,,0.00,0.000000,,2013-11-20 05:12:00,
2013-11-19 21:22:00,43.0,29.0,-100.00,NNW,336,16.0,22.0,57,0.00,,,0.00,0.000000,,2013-11-20 05:22:00,
2013-11-19 21:53:00,43.0,29.0,-100.00,NNW,335,15.0,22.0,57,0.00,,,0.00,0.000000,,2013-11-20 05:53:00,
2013-11-19 22:02:00,43.0,29.0,-100.00,NNW,335,15.0,22.0,57,0.00,,,0.00,0.000000,,2013-11-20 06:02:00,
2013-11-19 22:12:00,43.0,29.0,-100.00,NNW,335,15.0,22.0,57,0.00,,,0.00,0.000000,,2013-11-20 06:12:00,
2013-11-19 22:21:00,43.0,29.0,-100.00,NNW,335,15.0,22.0,57,0.00,,,0.00,0.000000,,2013-11-20 06:21:00,
2013-11-19 22:52:00,41.0,30.0,-100.00,NW,326,18.0,21.0,65,0.00,,,0.00,0.000000,,2013-11-20 06:52:00,
2013-11-19 23:01:00,41.0,30.0,-100.00,NW,326,18.0,21.0,65,0.00,,,0.00,0.000000,,2013-11-20 07:01:00,
2013-11-19 23:11:00,41.0,30.0,-100.00,NW,326,18.0,21.0,65,0.00,,,0.00,0.000000,,2013-11-20 07:11:00,
2013-11-19 23:21:00,41.0,30.0,-100.00,NW,326,18.0,21.0,65,0.00,,,0.00,0.000000,,2013-11-20 07:21:00,
2013-11-19 23:52:00,41.0,33.0,-100.00,NW,313,24.0,24.0,72,0.00,,,-99.99,0.000000,,2013-11-20 07:52:00,